[[{"header":{"parameterUnit":"m.s-1","parameterCategory":1,"la1":30.2991,"la2":30.254,"lo1":-89.0895,"lo2":-89.0444,"dx":0.0017,"dy":0.0017,"nx":28,"ny":28,"refTime":"2022-12-14T15:00:00:Z","depth":0,"parameterNumber":2,"parameterNumberName":"U-component_of_WINDS"},"data":[0,0,0,0,0,0,0,0,0,0,0,0,0,0,0,0,0,0,0,0,0,0,0,0,0,0,0,0,0,0,0,0,0,0,0,0,0,0,0,0,0,0,0,0,0,0,0,0,0,0,0,0,0,0,0,0,0,0,1.9541,1.9544,0,1.9832,1.9836,1.9839,1.9903,1.9901,1.9899,1.9897,2.0199,2.0209,2.0219,0,0,0,0,0,0,0,0,0,0,0,0,0,1.9046,1.9055,1.9541,1.9544,1.9548,1.9832,1.9836,1.984,1.9904,1.9901,1.9899,1.9896,2.0196,2.0208,2.022,0,0,0,0,0,0,0,0,0,0,0,0,0,1.9292,1.9058,1.954,1.9614,1.9624,1.9831,1.9836,1.9841,1.9904,1.9901,1.9898,1.9895,2.0192,2.0207,2.0221,2.0377,0,0,2.0267,2.0274,0,0,0,0,0,0,0,0,1.9278,1.931,1.96,1.9609,1.962,1.9828,1.9772,2.0021,1.9905,1.9798,1.9897,1.9893,2.0079,2.0103,2.0164,2.0391,2.0404,2.0269,2.0278,2.0284,2.0288,0,0,0,0,0,0,0,1.9261,1.9298,1.9656,1.9604,1.9617,1.9635,1.9666,1.982,1.9952,1.9807,1.9812,1.9846,2.0084,2.015,2.0172,2.0409,2.0268,2.0281,2.0291,2.0297,2.0784,2.0788,0,0,0,0,0,0,1.923,1.9283,1.9647,1.9665,1.9438,1.9646,1.9681,1.9765,1.9951,1.9976,1.9848,1.9848,2.0126,2.0154,2.0183,2.0381,2.0284,2.0298,2.0307,2.078,2.0785,2.0789,0,0,0,0,0,0,1.9219,1.9262,1.9635,1.9476,1.9525,1.9658,1.9751,1.9772,1.9838,1.9982,2.0006,1.9891,2.0124,2.0162,2.0329,2.0392,2.0305,2.0318,2.0776,2.0782,2.0787,2.0776,0,0,0,0,0,0,1.9205,1.9257,1.9316,1.9477,1.9533,1.9775,1.9755,1.978,1.9864,1.9866,2.0029,2.0053,2.0125,2.0307,2.0344,2.0411,2.033,2.0771,2.0778,2.0785,2.0771,2.0781,2.0789,0,0,0,0,0,1.9187,1.9301,1.9318,1.9362,1.9609,1.9778,1.9811,1.989,1.9868,1.993,2.0023,2.0047,2.0379,2.0323,2.0366,2.0439,2.0767,2.0776,2.0785,2.0767,2.0779,2.0789,0,0,0,0,0,0,1.9144,1.9323,1.9345,1.9514,1.963,1.9788,1.9868,1.9899,2.0025,2.0022,2.0117,2.0153,2.0316,2.0394,2.0329,2.0602,2.0573,2.0591,2.0545,2.0557,2.0565,2.0544,2.0343,0,0,0,0,0,1.9154,1.9275,1.9426,1.956,1.9618,1.9733,1.981,1.9861,1.9986,2.0036,2.0141,2.0263,2.0396,2.0481,2.061,2.0783,2.0822,2.0855,2.0864,2.087,2.0885,2.0987,2.1005,2.0819,2.0819,2.0818,0,0,1.9176,1.9289,1.936,1.9555,1.9651,1.9777,1.9774,1.9906,2.0001,2.0057,2.0222,2.0304,2.0447,2.0619,2.07,2.0689,2.0945,2.0882,2.0886,2.0897,2.0998,2.1016,2.1031,2.0825,2.0824,2.0823,0,0,1.9281,1.9378,1.9502,1.96,1.9746,1.9823,1.9853,2.0008,2.0065,2.0232,2.0278,2.0394,2.0618,2.072,2.08,2.095,2.0978,2.0989,2.1035,2.1134,2.1149,2.1162,2.1219,2.1237,2.1003,2.1003,2.1003,0,1.9291,1.948,1.9563,1.9694,1.9781,1.9837,1.9967,2.0058,2.0239,2.0298,2.0284,2.057,2.067,2.0869,2.0906,2.0968,2.1009,2.0971,2.1139,2.1154,2.1168,2.1223,2.1244,2.1004,2.1004,2.1004,2.1004,0,1.9486,1.9618,1.9701,1.9875,1.9971,2.0101,2.0206,2.0294,2.0338,2.0418,2.059,2.0713,2.087,2.0921,2.0965,2.1129,2.1118,2.112,2.1092,2.1185,2.1238,2.126,2.1005,2.1004,2.1004,2.1004,0,0,1.957,1.9791,1.9821,1.9902,2.007,2.0175,2.0309,2.0462,2.0538,2.0662,2.0779,2.0971,2.0976,2.1067,2.1125,2.1211,2.1326,2.1204,2.1209,2.1225,2.1518,2.1516,2.1539,2.1347,2.1351,2.1354,2.1507,0,1.9697,1.9936,2.0017,2.0217,2.0342,2.04,2.0518,2.0636,2.0714,2.0834,2.0922,2.1057,2.1051,2.1108,2.1196,2.1293,2.1387,2.1283,2.146,2.1465,2.1423,2.1566,2.1564,2.1702,2.1528,2.1532,2.1535,0,1.9876,2.0004,2.0216,2.0373,2.0429,2.0532,2.0683,2.0795,2.0932,2.0983,2.1088,2.114,2.1287,2.1251,2.1456,2.1384,2.1462,2.1521,2.1529,2.1549,2.1505,2.1593,2.1747,2.1769,2.1568,2.1565,2.1563,0,1.9919,2.0144,2.0302,2.037,2.0556,2.0628,2.071,2.0843,2.0932,2.1064,2.1123,2.1271,2.1352,2.1467,2.1559,2.1523,2.1758,2.1728,2.1808,2.1806,2.1854,2.185,2.2025,2.1902,2.1901,2.1901,2.19,0,2.0053,2.0181,2.0324,2.0421,2.0568,2.0662,2.0806,2.0891,2.101,2.1127,2.1187,2.1296,2.141,2.1535,2.1609,2.177,2.1806,2.1854,2.1873,2.185,2.1844,2.1902,2.1896,2.1906,2.1905,2.1904,2.1903,0,2.0124,2.0225,2.0401,2.0564,2.0608,2.071,2.0851,2.0949,2.1032,2.118,2.122,2.1351,2.1502,2.1605,2.1799,2.1849,2.2025,2.204,2.1978,2.1987,2.2062,2.2054,2.2282,2.2318,2.2168,2.2169,2.217,0,2.0203,2.0304,2.0478,2.0561,2.0642,2.0774,2.0866,2.0964,2.1057,2.1223,2.1303,2.1458,2.1587,2.1826,2.1941,2.2091,2.2112,2.2182,2.2135,2.211,2.2116,2.2109,2.2122,2.2188,2.219,2.2191,2.2191,0,2.0334,2.038,2.0509,2.0657,2.0765,2.0887,2.1009,2.1073,2.1193,2.1296,2.1451,2.1552,2.1751,2.1906,2.2068,2.2155,2.2195,2.2206,2.2232,2.221,2.2171,2.2196,2.2,2.22,2.2199,2.2198,2.2198,2.2197,2.0414,2.0508,2.0646,2.0789,2.0892,2.1006,2.1108,2.1204,2.1335,2.1504,2.1555,2.1717,2.1857,2.2078,2.2169,2.23,2.2294,2.2332,2.2342,2.235,2.2351,2.215,2.2329,2.2329,2.2329,2.2329,2.2329,0,2.055,2.0643,2.0774,2.0943,2.1057,2.1085,2.1223,2.1317,2.1459,2.1585,2.1712,2.1893,2.2045,2.2173,2.2331,2.2411,2.2434,2.245,2.2445,2.2466,2.2346,2.2308,2.2429,2.2429,2.2429,2.2429,2.2429,2.2429,2.0634,2.0795,2.0858,2.1073,2.1166,2.1325,2.1402,2.1509,2.1611,2.181,2.1936,2.2018,2.2147,2.2316,2.2458,2.2492,2.2549,2.2561,2.2599,2.2485,2.2474,2.2463,2.2428,2.2572,2.2572,2.2709,2.271,2.2711]},{"header":{"parameterUnit":"m.s-1","parameterCategory":1,"la1":30.2991,"la2":30.254,"lo1":-89.0895,"lo2":-89.0444,"dx":0.0017,"dy":0.0017,"nx":28,"ny":28,"refTime":"2022-12-14T15:00:00:Z","depth":0,"parameterNumber":3,"parameterNumberName":"V-component_of_WINDS"},"data":[0,0,0,0,0,0,0,0,0,0,0,0,0,0,0,0,0,0,0,0,0,0,0,0,0,0,0,0,0,0,0,0,0,0,0,0,0,0,0,0,0,0,0,0,0,0,0,0,0,0,0,0,0,0,0,0,0,0,-6.2115,-6.2119,0,-6.2578,-6.2584,-6.2589,-6.2661,-6.2657,-6.2653,-6.2649,-6.3131,-6.3147,-6.3164,0,0,0,0,0,0,0,0,0,0,0,0,0,-6.1298,-6.1313,-6.2114,-6.212,-6.2126,-6.2578,-6.2584,-6.259,-6.2662,-6.2657,-6.2652,-6.2647,-6.3126,-6.3145,-6.3165,0,0,0,0,0,0,0,0,0,0,0,0,0,-6.1696,-6.1318,-6.2113,-6.2216,-6.223,-6.2576,-6.2584,-6.2592,-6.2663,-6.2657,-6.2651,-6.2645,-6.3119,-6.3144,-6.3168,-6.3447,0,0,-6.3245,-6.3256,0,0,0,0,0,0,0,0,-6.1674,-6.1726,-6.2195,-6.2209,-6.2225,-6.2555,-6.2473,-6.2879,-6.2665,-6.2499,-6.2649,-6.2642,-6.2945,-6.2984,-6.3085,-6.347,-6.349,-6.3247,-6.3262,-6.3273,-6.328,0,0,0,0,0,0,0,-6.1646,-6.1707,-6.2298,-6.2202,-6.222,-6.2241,-6.2291,-6.255,-6.2751,-6.2513,-6.2519,-6.2573,-6.2952,-6.3061,-6.3097,-6.3497,-6.3246,-6.3269,-6.3284,-6.3294,-6.4137,-6.4144,0,0,0,0,0,0,-6.1599,-6.1683,-6.2283,-6.2312,-6.1928,-6.2261,-6.2317,-6.2456,-6.2749,-6.2787,-6.2577,-6.2574,-6.3021,-6.3068,-6.3114,-6.3461,-6.3273,-6.3296,-6.3311,-6.413,-6.4139,-6.4147,0,0,0,0,0,0,-6.1581,-6.1652,-6.2265,-6.2,-6.2079,-6.2282,-6.2438,-6.2468,-6.2577,-6.2797,-6.2834,-6.2651,-6.3018,-6.3079,-6.3364,-6.3479,-6.3307,-6.333,-6.4121,-6.4133,-6.4143,-6.4156,0,0,0,0,0,0,-6.1557,-6.1645,-6.1751,-6.2001,-6.2093,-6.2504,-6.2445,-6.2482,-6.2619,-6.2619,-6.2876,-6.2913,-6.3018,-6.3326,-6.3389,-6.351,-6.335,-6.4112,-6.4126,-6.4139,-6.4147,-6.4167,-6.4184,0,0,0,0,0,-6.1528,-6.1737,-6.1756,-6.1828,-6.2229,-6.251,-6.2563,-6.2678,-6.2628,-6.2737,-6.288,-6.2904,-6.3456,-6.3355,-6.3426,-6.3557,-6.4105,-6.4122,-6.4138,-6.4138,-6.4163,-6.4183,0,0,0,0,0,0,-6.1496,-6.1772,-6.1795,-6.2091,-6.2277,-6.2522,-6.2663,-6.27,-6.2905,-6.2897,-6.3033,-6.309,-6.3369,-6.3492,-6.3374,-6.3843,-6.3777,-6.3809,-6.3753,-6.3778,-6.3796,-6.3761,-6.3371,0,0,0,0,0,-6.1523,-6.1726,-6.1957,-6.2196,-6.2288,-6.2459,-6.2586,-6.2658,-6.2857,-6.2936,-6.31,-6.3293,-6.3511,-6.3651,-6.3863,-6.4165,-6.4223,-6.4291,-6.4309,-6.4323,-6.4349,-6.452,-6.4553,-6.4201,-6.4201,-6.4201,0,0,-6.1582,-6.1758,-6.1878,-6.2194,-6.2346,-6.2556,-6.2525,-6.2748,-6.2906,-6.2971,-6.325,-6.3376,-6.3602,-6.3897,-6.4035,-6.4008,-6.4459,-6.4344,-6.4354,-6.4373,-6.4541,-6.4574,-6.4603,-6.4213,-6.4211,-6.4209,0,0,-6.1797,-6.1949,-6.2165,-6.2318,-6.2549,-6.2662,-6.2714,-6.2955,-6.3041,-6.3322,-6.3376,-6.3568,-6.3938,-6.4098,-6.4227,-6.4504,-6.4535,-6.4569,-6.4666,-6.4831,-6.4859,-6.4884,-6.4985,-6.5019,-6.4594,-6.4594,-6.4594,0,-6.1841,-6.2156,-6.2273,-6.2494,-6.2633,-6.27,-6.2922,-6.3066,-6.3354,-6.345,-6.3415,-6.3883,-6.404,-6.4374,-6.4441,-6.4543,-6.4609,-6.454,-6.4845,-6.4872,-6.4897,-6.4995,-6.5032,-6.4597,-6.4597,-6.4596,-6.4596,0,-6.2201,-6.2419,-6.2567,-6.2842,-6.2998,-6.3218,-6.337,-6.3514,-6.3574,-6.3691,-6.3979,-6.4169,-6.4422,-6.4507,-6.4568,-6.4851,-6.4827,-6.4817,-6.4753,-6.4931,-6.5025,-6.5063,-6.4601,-6.46,-6.4599,-6.4598,0,0,-6.2407,-6.2744,-6.2797,-6.2923,-6.3183,-6.3356,-6.3581,-6.3826,-6.3948,-6.4145,-6.4339,-6.4652,-6.4645,-6.4792,-6.4872,-6.5017,-6.5226,-6.499,-6.4997,-6.5028,-6.5553,-6.5558,-6.5599,-6.5248,-6.5256,-6.5262,-6.5534,0,-6.2652,-6.3053,-6.3165,-6.3504,-6.3709,-6.3777,-6.3974,-6.4156,-6.4273,-6.4466,-6.4596,-6.4816,-6.4789,-6.4878,-6.5025,-6.5169,-6.5333,-6.5151,-6.5433,-6.5441,-6.5374,-6.5648,-6.5656,-6.5903,-6.5571,-6.5577,-6.5582,0,-6.2992,-6.3194,-6.3553,-6.3788,-6.3879,-6.4053,-6.4288,-6.4471,-6.468,-6.4755,-6.492,-6.4987,-6.5227,-6.515,-6.5485,-6.5358,-6.5481,-6.5569,-6.5582,-6.5613,-6.5522,-6.5688,-6.5984,-6.6022,-6.5641,-6.5636,-6.5632,0,-6.3107,-6.347,-6.3732,-6.3838,-6.4119,-6.424,-6.4364,-6.4567,-6.4708,-6.4914,-6.5008,-6.524,-6.5368,-6.5547,-6.5677,-6.5608,-6.6002,-6.5934,-6.6073,-6.607,-6.6153,-6.6146,-6.6474,-6.623,-6.6229,-6.6229,-6.6228,0,-6.337,-6.3587,-6.3788,-6.3949,-6.4196,-6.4324,-6.4566,-6.4693,-6.4873,-6.5063,-6.5137,-6.5314,-6.5473,-6.5673,-6.5776,-6.6039,-6.6096,-6.6165,-6.619,-6.6159,-6.615,-6.6241,-6.6228,-6.6239,-6.6236,-6.6234,-6.6233,0,-6.354,-6.3683,-6.3974,-6.4216,-6.4282,-6.4453,-6.4662,-6.4823,-6.4943,-6.5182,-6.5246,-6.5434,-6.5673,-6.5819,-6.6123,-6.6192,-6.6482,-6.65,-6.641,-6.6422,-6.6553,-6.6539,-6.6951,-6.7013,-6.6726,-6.6728,-6.6731,0,-6.3698,-6.3867,-6.4127,-6.4258,-6.4382,-6.4593,-6.4737,-6.4871,-6.5018,-6.5271,-6.5402,-6.5645,-6.5846,-6.6225,-6.6391,-6.6624,-6.6649,-6.6778,-6.6685,-6.6649,-6.6653,-6.6641,-6.666,-6.6793,-6.6795,-6.6797,-6.6799,0,-6.3965,-6.4027,-6.423,-6.446,-6.4629,-6.4817,-6.5004,-6.5108,-6.5275,-6.5437,-6.5681,-6.5837,-6.6146,-6.6387,-6.6635,-6.6765,-6.6812,-6.6827,-6.6872,-6.6842,-6.6783,-6.6818,-6.6454,-6.6817,-6.6815,-6.6814,-6.6813,-6.6812,-6.4135,-6.4289,-6.4496,-6.4721,-6.4876,-6.505,-6.5213,-6.5353,-6.5558,-6.5818,-6.5886,-6.6142,-6.6351,-6.6688,-6.6823,-6.7028,-6.7009,-6.7073,-6.709,-6.7104,-6.7107,-6.675,-6.7073,-6.7073,-6.7073,-6.7073,-6.7072,0,-6.4406,-6.4543,-6.4749,-6.5008,-6.5186,-6.5211,-6.542,-6.5568,-6.5792,-6.5981,-6.6178,-6.6459,-6.6694,-6.6879,-6.7121,-6.7249,-6.7276,-6.7308,-6.7301,-6.733,-6.7109,-6.7047,-6.7282,-6.7282,-6.7282,-6.7282,-6.7282,-6.7282,-6.4568,-6.483,-6.4918,-6.5259,-6.5395,-6.5645,-6.5762,-6.5924,-6.6076,-6.6386,-6.6581,-6.6699,-6.6889,-6.7145,-6.7363,-6.7411,-6.7498,-6.7526,-6.7579,-6.7369,-6.7346,-6.7324,-6.7266,-6.7543,-6.7543,-6.7783,-6.7785,-6.7787]}]]